PROGRESS-MS 30

Last updated on Wed Sep 10 2025 00:02:10 GMT+0000 (Coordinated Universal Time)

1 63129U 25041B 25252.19474949 .00008866 00000+0 16199-3 0 9992 2 63129 51.6325 250.6930 0004280 318.3144 41.7518 15.50201228 26918
UTC large
Height (km)
Speed (km/s)
/
Latitude / Longitude
Inclination (degrees)
Orbital Period (minutes)
Azimuth
Elevation
Range (km)
Doppler Factor

Next 0 passes for location: London (51.5072 / 0.1276)

Sorry there are no passes over London.
PROGRESS-MS 30